Location: St. Louis
(38.6270°N, 90.1994°W)
Time: 00:17:49
(UTC-06:00)

Courier 1B Rocket - Pass Details

Date: 05 December 2021
Orbit: 920 x 1202 km, 28.2° (Epoch: 16 January)

Event Time Altitude Azimuth Distance (km) Brightness Sun altitude
Rises 20:29:09 0° 215° (SW) 3,787 8.4 -44.1°
Enters shadow 20:30:54 - 208° (SSW) 3,291 7.9 -44.5°
Reaches altitude 10° 20:32:59 10° 196° (SSW) 2,777 - -44.9°
Maximum altitude 20:36:59 17° 159° (SSE) 2,277 - -45.7°
Drops below altitude 10° 20:40:51 10° 121° (ESE) 2,677 - -46.4°
Sets 20:44:27 0° 102° (ESE) 3,588 - -47.1°
